TimeCST,TemperatureF,Dew PointF,Humidity,Sea Level PressureIn,VisibilityMPH,Wind Direction,Wind SpeedMPH,Gust SpeedMPH,PrecipitationIn,Events,Conditions,WindDirDegrees,DateUTC
12:15 AM,30.2,19.4,64,30.29,10.0,SSW,8.1,-,N/A,,Clear,200,2012-12-05 06:15:00
12:35 AM,30.2,19.4,64,30.29,10.0,SSW,6.9,-,N/A,,Clear,200,2012-12-05 06:35:00
12:55 AM,33.8,17.6,52,30.29,10.0,SSW,5.8,-,N/A,,Clear,200,2012-12-05 06:55:00
1:15 AM,33.8,19.4,56,30.28,10.0,SSW,5.8,-,N/A,,Clear,200,2012-12-05 07:15:00
1:55 AM,32.0,17.6,55,30.27,10.0,SSW,6.9,-,N/A,,Clear,200,2012-12-05 07:55:00
2:15 AM,33.8,17.6,52,30.26,10.0,SSW,6.9,-,N/A,,Clear,200,2012-12-05 08:15:00
2:35 AM,32.0,17.6,55,30.27,10.0,SSW,6.9,-,N/A,,Clear,200,2012-12-05 08:35:00
2:55 AM,33.8,19.4,56,30.27,10.0,SSW,6.9,-,N/A,,Clear,210,2012-12-05 08:55:00
3:15 AM,33.8,17.6,52,30.27,10.0,SSW,9.2,-,N/A,,Clear,210,2012-12-05 09:15:00
3:35 AM,33.8,19.4,56,30.27,10.0,SSW,8.1,-,N/A,,Clear,200,2012-12-05 09:35:00
3:55 AM,33.8,17.6,52,30.26,10.0,SSW,6.9,-,N/A,,Clear,200,2012-12-05 09:55:00
4:15 AM,33.8,17.6,52,30.25,10.0,South,8.1,-,N/A,,Clear,190,2012-12-05 10:15:00
4:35 AM,30.2,17.6,60,30.24,10.0,South,8.1,-,N/A,,Clear,190,2012-12-05 10:35:00
4:55 AM,30.2,17.6,60,30.24,10.0,South,9.2,-,N/A,,Clear,190,2012-12-05 10:55:00
5:15 AM,30.2,17.6,60,30.25,10.0,SSW,9.2,-,N/A,,Clear,200,2012-12-05 11:15:00
5:35 AM,30.2,17.6,60,30.25,10.0,South,9.2,-,N/A,,Clear,190,2012-12-05 11:35:00
5:55 AM,30.2,17.6,60,30.24,10.0,South,9.2,-,N/A,,Clear,190,2012-12-05 11:55:00
6:15 AM,33.8,19.4,56,30.24,10.0,South,11.5,-,N/A,,Clear,170,2012-12-05 12:15:00
6:35 AM,35.6,19.4,52,30.24,10.0,South,12.7,-,N/A,,Clear,180,2012-12-05 12:35:00
6:55 AM,37.4,21.2,52,30.24,10.0,South,13.8,-,N/A,,Clear,180,2012-12-05 12:55:00
8:35 AM,42.8,24.8,49,30.21,10.0,South,13.8,-,N/A,,Clear,180,2012-12-05 14:35:00
8:55 AM,44.6,24.8,46,30.22,10.0,South,13.8,-,N/A,,Clear,190,2012-12-05 14:55:00
9:15 AM,46.4,24.8,43,30.20,10.0,South,16.1,-,N/A,,Clear,190,2012-12-05 15:15:00
9:35 AM,48.2,24.8,40,30.21,10.0,South,16.1,-,N/A,,Clear,190,2012-12-05 15:35:00
9:55 AM,50.0,24.8,37,30.21,10.0,South,17.3,-,N/A,,Clear,190,2012-12-05 15:55:00
10:15 AM,50.0,24.8,37,30.20,10.0,South,20.7,-,N/A,,Clear,190,2012-12-05 16:15:00
10:35 AM,53.6,24.8,33,30.19,10.0,South,20.7,24.2,N/A,,Clear,190,2012-12-05 16:35:00
10:55 AM,55.4,24.8,31,30.18,10.0,South,24.2,29.9,N/A,,Clear,180,2012-12-05 16:55:00
11:15 AM,57.2,24.8,29,30.17,10.0,South,24.2,31.1,N/A,,Clear,190,2012-12-05 17:15:00
11:35 AM,57.2,24.8,29,30.15,10.0,South,26.5,32.2,N/A,,Clear,180,2012-12-05 17:35:00
11:55 AM,57.2,23.0,27,30.13,10.0,South,26.5,33.4,N/A,,Clear,180,2012-12-05 17:55:00
12:15 PM,59.0,23.0,25,30.12,10.0,South,28.8,34.5,N/A,,Clear,190,2012-12-05 18:15:00
12:35 PM,60.8,23.0,23,30.10,10.0,South,27.6,32.2,N/A,,Clear,180,2012-12-05 18:35:00
12:55 PM,60.8,21.2,22,30.08,10.0,South,27.6,32.2,N/A,,Clear,180,2012-12-05 18:55:00
1:15 PM,60.8,21.2,22,30.07,10.0,South,27.6,31.1,N/A,,Clear,190,2012-12-05 19:15:00
1:35 PM,60.8,21.2,22,30.06,10.0,South,26.5,33.4,N/A,,Clear,180,2012-12-05 19:35:00
1:55 PM,60.8,21.2,22,30.05,10.0,South,21.9,-,N/A,,Clear,190,2012-12-05 19:55:00
2:15 PM,60.8,21.2,22,30.03,10.0,South,25.3,-,N/A,,Clear,170,2012-12-05 20:15:00
2:35 PM,60.8,21.2,22,30.02,10.0,South,25.3,29.9,N/A,,Clear,170,2012-12-05 20:35:00
2:55 PM,62.6,21.2,20,30.01,10.0,South,23.0,27.6,N/A,,Clear,180,2012-12-05 20:55:00
3:15 PM,60.8,21.2,22,30.02,10.0,South,19.6,-,N/A,,Clear,180,2012-12-05 21:15:00
3:35 PM,60.8,21.2,22,30.00,10.0,South,21.9,27.6,N/A,,Clear,170,2012-12-05 21:35:00
3:55 PM,59.0,21.2,23,29.99,10.0,South,21.9,27.6,N/A,,Clear,170,2012-12-05 21:55:00
4:15 PM,57.2,21.2,25,29.98,10.0,SSE,23.0,-,N/A,,Clear,160,2012-12-05 22:15:00
4:35 PM,55.4,21.2,26,29.98,10.0,SSE,19.6,27.6,N/A,,Clear,160,2012-12-05 22:35:00
4:55 PM,55.4,21.2,26,29.96,10.0,SSE,21.9,-,N/A,,Clear,160,2012-12-05 22:55:00
5:15 PM,53.6,21.2,28,29.97,10.0,SSE,19.6,24.2,N/A,,Clear,160,2012-12-05 23:15:00
5:35 PM,53.6,21.2,28,29.96,10.0,SSE,18.4,-,N/A,,Clear,160,2012-12-05 23:35:00
5:55 PM,51.8,21.2,30,29.96,10.0,South,19.6,-,N/A,,Clear,170,2012-12-05 23:55:00
6:15 PM,51.8,21.2,30,29.96,10.0,South,17.3,-,N/A,,Clear,170,2012-12-06 00:15:00
6:35 PM,50.0,21.2,32,29.96,10.0,South,19.6,-,N/A,,Clear,170,2012-12-06 00:35:00
6:55 PM,48.2,21.2,34,29.96,10.0,South,17.3,-,N/A,,Clear,170,2012-12-06 00:55:00
7:15 PM,48.2,21.2,34,29.95,10.0,SSE,18.4,-,N/A,,Clear,160,2012-12-06 01:15:00
7:35 PM,48.2,21.2,34,29.95,10.0,SSE,16.1,-,N/A,,Clear,160,2012-12-06 01:35:00
7:55 PM,48.2,21.2,34,29.94,10.0,SSE,16.1,20.7,N/A,,Clear,160,2012-12-06 01:55:00
8:15 PM,46.4,21.2,37,29.94,10.0,South,16.1,-,N/A,,Clear,170,2012-12-06 02:15:00
8:35 PM,46.4,21.2,37,29.94,10.0,South,17.3,-,N/A,,Clear,170,2012-12-06 02:35:00
8:55 PM,48.2,21.2,34,29.95,10.0,South,17.3,-,N/A,,Clear,170,2012-12-06 02:55:00
9:15 PM,46.4,21.2,37,29.94,10.0,South,16.1,-,N/A,,Clear,170,2012-12-06 03:15:00
9:35 PM,46.4,21.2,37,29.93,10.0,South,16.1,-,N/A,,Clear,180,2012-12-06 03:35:00
9:55 PM,46.4,21.2,37,29.93,10.0,South,16.1,-,N/A,,Clear,180,2012-12-06 03:55:00
10:15 PM,46.4,21.2,37,29.90,10.0,South,17.3,-,N/A,,Clear,170,2012-12-06 04:15:00
10:35 PM,46.4,21.2,37,29.90,10.0,South,17.3,-,N/A,,Clear,170,2012-12-06 04:35:00
10:55 PM,46.4,21.2,37,29.89,10.0,South,19.6,25.3,N/A,,Clear,170,2012-12-06 04:55:00
11:15 PM,46.4,21.2,37,29.89,10.0,South,19.6,-,N/A,,Clear,180,2012-12-06 05:15:00
11:35 PM,46.4,21.2,37,29.88,10.0,South,20.7,-,N/A,,Clear,180,2012-12-06 05:35:00
11:55 PM,46.4,21.2,37,29.87,10.0,South,18.4,-,N/A,,Clear,180,2012-12-06 05:55:00